Fort Bragg, NC

10:13 AM EDT on May 23, 2017 (GMT -0400)
Simmons Army Air Field

Weather History for KFBG - October, 2013

Change the Weather History Date:

Saturday, October 12, 2013

  Actual Average Record
Temperature  
Mean Temperature 65 °F -  
Max Temperature 71 °F 71 °F 88 °F (2010)
Min Temperature 60 °F 52 °F 41 °F (1996)
Growing Degree Days 15 (Base 50)    
Moisture  
Dew Point 65 °F    
Average Humidity 93    
Maximum Humidity 100    
Minimum Humidity 79    
Precipitation  
Precipitation 0.00 in - - ()
Sea Level Pressure  
Sea Level Pressure 30.03 in    
Wind  
Wind Speed 5 mph (NNW)    
Max Wind Speed 9 mph    
Max Gust Speed -    
Visibility 10 miles    
Events Rain    
Averages and records for this station are not official NWS values.
T = Trace of Precipitation, MM = Missing Value Source: NWS Daily Summary

Daily Weather History Graph

Daily Weather History Graph

Search for Another Location

Airport or City:

Trip Planner

Search our weather history database for the weather conditions in past years. The results will help you decide how hot, cold, wet, or windy it might be!

Date:

Astronomy

Oct. 12, 2013 Rise Set
Actual Time 7:19 AM EDT 6:44 PM EDT
Civil Twilight 6:54 AM EDT 7:09 PM EDT
Nautical Twilight 6:24 AM EDT 7:39 PM EDT
Astronomical Twilight 5:55 AM EDT 8:08 PM EDT
Moon 2:39 PM EDT (10/12) 12:35 AM EDT (10/12)
Length of Visible Light 12h 15m
Length of Day
11h 24m
First Quarter, 58% of the Moon is Illuminated
Oct 12
First Quarter
Oct 18
Full
Oct 26
Last Quarter
Nov 3
New
Nov 10
First Quarter

Hourly Weather History & Observations

Time (EDT) Temp. Dew Point Humidity Pressure Visibility Wind Dir Wind Speed Gust Speed Precip Events Conditions
12:58 AM 64.0 °F 63.9 °F 99% 29.97 in 10.0 mi NNW 2.3 mph - N/A   Mostly Cloudy
1:58 AM 64.0 °F 63.7 °F 99% 29.97 in 10.0 mi NNW 2.3 mph - N/A   Overcast
2:58 AM 62.8 °F 62.6 °F 99% 29.97 in 10.0 mi NNW 3.5 mph - N/A   Mostly Cloudy
3:58 AM 61.9 °F 61.5 °F 99% 29.97 in 10.0 mi North 2.3 mph - N/A   Mostly Cloudy
4:58 AM 60.4 °F 60.3 °F 99% 29.97 in 10.0 mi NNW 4.6 mph - N/A   Mostly Cloudy
5:58 AM 61.7 °F 61.3 °F 99% 29.98 in 10.0 mi NNW 4.6 mph - N/A   Overcast
6:58 AM 61.9 °F 61.5 °F 99% 30.01 in 10.0 mi NNW 4.6 mph - N/A   Overcast
7:58 AM 62.2 °F 61.9 °F 99% 30.02 in 10.0 mi NW 4.6 mph - N/A   Overcast
8:58 AM 62.8 °F 62.6 °F 99% 30.04 in 10.0 mi NW 3.5 mph - N/A   Overcast
9:44 AM 64.4 °F 62.6 °F 94% 30.03 in 10.0 mi NNW 5.8 mph - N/A   Overcast
9:58 AM 63.7 °F 63.5 °F 99% 30.04 in 10.0 mi NW 4.6 mph - N/A   Overcast
10:18 AM 64.4 °F 64.4 °F 100% 30.03 in 10.0 mi NNW 5.8 mph - N/A   Overcast
10:48 AM 64.4 °F 64.4 °F 100% 30.03 in 10.0 mi NW 5.8 mph - N/A   Overcast
10:58 AM 64.6 °F 63.9 °F 98% 30.04 in 10.0 mi NW 6.9 mph - N/A   Overcast
11:00 AM 64.4 °F 62.6 °F 94% 30.03 in 10.0 mi NW 6.9 mph - N/A   Overcast
11:58 AM 66.2 °F 63.3 °F 90% 30.05 in 10.0 mi NNW 8.1 mph - N/A   Overcast
12:58 PM 67.5 °F 63.3 °F 87% 30.04 in 10.0 mi NW 6.9 mph - N/A   Overcast
1:22 PM 68.0 °F 62.6 °F 83% 30.02 in 10.0 mi NNW 6.9 mph - N/A   Overcast
1:58 PM 68.5 °F 63.0 °F 82% 30.02 in 10.0 mi NW 6.9 mph - N/A   Overcast
2:58 PM 69.8 °F 63.5 °F 80% 30.02 in 10.0 mi North 6.9 mph - N/A   Overcast
3:46 PM 69.8 °F 64.4 °F 83% 30.01 in 10.0 mi NW 5.8 mph - N/A   Overcast
3:58 PM 70.5 °F 63.9 °F 79% 30.02 in 10.0 mi NW 6.9 mph - N/A   Overcast
4:08 PM 69.8 °F 64.4 °F 83% 30.01 in 10.0 mi NW 6.9 mph - N/A   Overcast
4:52 PM 69.8 °F 64.4 °F 83% 30.02 in 10.0 mi NNW 6.9 mph - N/A   Overcast
4:58 PM 69.8 °F 65.1 °F 85% 30.03 in 10.0 mi North 8.1 mph - N/A   Mostly Cloudy
5:02 PM 69.8 °F 66.2 °F 88% 30.02 in 10.0 mi NNW 6.9 mph - N/A   Mostly Cloudy
5:04 PM 69.8 °F 66.2 °F 88% 30.02 in 10.0 mi NNW 8.1 mph - N/A   Mostly Cloudy
5:08 PM 69.8 °F 66.2 °F 88% 30.02 in 10.0 mi NNW 9.2 mph - N/A   Mostly Cloudy
5:10 PM 69.8 °F 66.2 °F 88% 30.02 in 10.0 mi NW 9.2 mph - N/A   Mostly Cloudy
5:16 PM 69.8 °F 66.2 °F 88% 30.02 in 10.0 mi NW 6.9 mph - N/A   Mostly Cloudy
5:18 PM 69.8 °F 66.2 °F 88% 30.02 in 10.0 mi NNW 6.9 mph - N/A   Mostly Cloudy
5:40 PM 69.8 °F 66.2 °F 88% 30.02 in 10.0 mi NNW 5.8 mph - N/A   Mostly Cloudy
5:50 PM 69.8 °F 66.2 °F 88% 30.03 in 10.0 mi NNW 6.9 mph - N/A   Mostly Cloudy
5:54 PM 69.8 °F 66.2 °F 88% 30.03 in 10.0 mi North 5.8 mph - N/A   Mostly Cloudy
5:58 PM 69.1 °F 65.8 °F 89% 30.04 in 10.0 mi NNW 4.6 mph - N/A   Mostly Cloudy
6:02 PM 69.8 °F 66.2 °F 88% 30.03 in 10.0 mi NNW 4.6 mph - N/A   Mostly Cloudy
6:10 PM 69.8 °F 66.2 °F 88% 30.03 in 10.0 mi North 6.9 mph - N/A   Mostly Cloudy
6:16 PM 68.0 °F 66.2 °F 94% 30.03 in 10.0 mi NNW 6.9 mph - N/A   Mostly Cloudy
6:38 PM 68.0 °F 66.2 °F 94% 30.04 in 10.0 mi North 4.6 mph - N/A   Mostly Cloudy
6:42 PM 68.0 °F 66.2 °F 94% 30.04 in 10.0 mi North 3.5 mph - N/A   Mostly Cloudy
6:58 PM 68.2 °F 66.2 °F 93% 30.05 in 10.0 mi NNW 4.6 mph - N/A   Mostly Cloudy
7:18 PM 68.0 °F 66.2 °F 94% 30.04 in 10.0 mi NNW 3.5 mph - N/A   Mostly Cloudy
7:22 PM 68.0 °F 66.2 °F 94% 30.04 in 10.0 mi NNW 3.5 mph - N/A   Mostly Cloudy
7:44 PM 68.0 °F 66.2 °F 94% 30.05 in 10.0 mi NNW 3.5 mph - N/A   Mostly Cloudy
7:58 PM 67.5 °F 66.6 °F 97% 30.06 in 10.0 mi NW 3.5 mph - N/A   Mostly Cloudy
8:04 PM 68.0 °F 66.2 °F 94% 30.05 in 10.0 mi NW 4.6 mph - N/A   Overcast
8:20 PM 68.0 °F 66.2 °F 94% 30.06 in 10.0 mi NNW 4.6 mph - N/A   Overcast
8:34 PM 68.0 °F 66.2 °F 94% 30.06 in 10.0 mi North 6.9 mph - N/A Rain Light Rain
8:40 PM 66.2 °F 66.2 °F 100% 30.05 in 10.0 mi North 5.8 mph - N/A Rain Light Rain
8:54 PM 66.2 °F 66.2 °F 100% 30.06 in 10.0 mi North 4.6 mph - N/A   Overcast
8:58 PM 66.4 °F 66.0 °F 99% 30.07 in 10.0 mi North 4.6 mph - 0.00 in   Mostly Cloudy
9:08 PM 66.2 °F 66.2 °F 100% 30.06 in 10.0 mi North 4.6 mph - N/A   Mostly Cloudy
9:30 PM 66.2 °F 66.2 °F 100% 30.06 in 10.0 mi North 3.5 mph - N/A   Overcast
9:58 PM 65.8 °F 65.5 °F 99% 30.08 in 10.0 mi North 3.5 mph - N/A   Mostly Cloudy
10:12 PM 66.2 °F 66.2 °F 100% 30.07 in 10.0 mi North 4.6 mph - N/A   Mostly Cloudy
10:36 PM 66.2 °F 66.2 °F 100% 30.07 in 10.0 mi NNW 2.3 mph - N/A   Overcast
10:56 PM 66.2 °F 66.2 °F 100% 30.07 in 10.0 mi North 4.6 mph - N/A   Overcast
10:58 PM 65.8 °F 65.5 °F 99% 30.08 in 10.0 mi North 3.5 mph - N/A   Overcast
11:58 PM 66.0 °F 65.7 °F 99% 30.08 in 10.0 mi NNW 4.6 mph - N/A   Overcast